Location: Baili�vre
(50.0696°N, 4.2409°E)
Time: 21:29:08
(UTC+00:00)

Cosmos 1833 Rocket - Pass Details

Date: 08 August 2020
Orbit: 831 x 841 km, 71.0° (Epoch: 22 September)

Event Time Altitude Azimuth Distance (km) Brightness Sun altitude
Rises 20:52:47 0° 211° (SSW) 3,365 5.7 -13.6°
Reaches altitude 10° 20:55:13 10° 212° (SSW) 2,437 4.9 -13.9°
Maximum altitude 21:00:49 80° 300° (WNW) 853 2.8 -14.5°
Drops below altitude 10° 21:06:28 10° 28° (NNE) 2,459 5.4 -15.1°
Sets 21:08:56 0° 29° (NNE) 3,399 6.1 -15.4°
